Orbital Elements at Epoch 2459200.5 (2020-Dec-17.0) TDB
Reference: JPL 21 (heliocentric ecliptic J2000)
Element | Value | Uncertainty (1-sigma) | Units |
e | .07848033560591744 | 5.0452e-08 | |
a | 3.168468901753182 | 2.6299e-08 | au |
q | 2.91980639898668 | 1.5627e-07 | au |
i | 17.10696660003374 | 6.0274e-06 | deg |
node | 211.5760725012718 | 1.5062e-05 | deg |
peri | 209.193023728049 | 3.7366e-05 | deg |
M | 247.233266527047 | 3.6612e-05 | deg |
tp | 2459845.784301701171 (2022-Sep-23.28430170) | 0.00021325 | TDB |
period | 2060.025518679575 5.64 | 2.5648e-05 7.022e-08 | d yr |
n | .1747551167379475 | 2.1758e-09 | deg/d |
Q | 3.417131404519684 | 2.8363e-08 | au |
|
| | Orbit Determination Parameters
Additional Information
|